,,Stat5,,Stat1,,Stat2,,Stat3,,Stat4,,Wind1,,Wind1,
time,status,PA1M_AVG,status,PR1M_SUM,status,RH1M_AVG,status,SR1M_AVG,status,TA1M_AVG,status,W1dAve1m,status,W1sAve1m,
2002-06-29, 00:00:00,VALID,920.277,VALID,0,VALID,96.4868,VALID,0,VALID,20.993,VALID,9,VALID,1.09902,
2002-06-29, 00:01:00,VALID,920.233,VALID,0,VALID,96.4652,VALID,0.0169808,VALID,20.9962,VALID,25,VALID,1.14106,
2002-06-29, 00:02:00,VALID,920.226,VALID,0,VALID,96.5326,VALID,-0.0169808,VALID,21.0024,VALID,13,VALID,0.817785,
2002-06-29, 00:03:00,VALID,920.231,VALID,0,VALID,96.5008,VALID,0,VALID,21.0288,VALID,23,VALID,0.537305,
2002-06-29, 00:04:00,VALID,920.264,VALID,0,VALID,96.5326,VALID,-0.0169808,VALID,21.0449,VALID,7,VALID,0.517045,
2002-06-29, 00:05:00,VALID,920.262,VALID,0,VALID,96.4779,VALID,0,VALID,21.0412,VALID,33,VALID,0.815625,
2002-06-29, 00:06:00,VALID,920.239,VALID,0,VALID,96.5084,VALID,0,VALID,21.0638,VALID,7,VALID,0.811523,
2002-06-29, 00:07:00,VALID,920.214,VALID,0,VALID,96.4334,VALID,0,VALID,21.0702,VALID,20,VALID,1.50357,
2002-06-29, 00:08:00,VALID,920.2,VALID,0,VALID,96.3876,VALID,0,VALID,21.0578,VALID,18,VALID,1.60317,
2002-06-29, 00:09:00,VALID,920.202,VALID,0,VALID,96.3762,VALID,0.0169808,VALID,21.0471,VALID,18,VALID,1.25937,
2002-06-29, 00:10:00,VALID,920.213,VALID,0,VALID,96.4359,VALID,0.0339617,VALID,21.06,VALID,17,VALID,0.761837,
2002-06-29, 00:11:00,VALID,920.22,VALID,0,VALID,96.4474,VALID,0.0339617,VALID,21.067,VALID,23,VALID,1.1308,
2002-06-29, 00:12:00,VALID,920.224,VALID,0,VALID,96.4754,VALID,0,VALID,21.0659,VALID,38,VALID,0.7125,
2002-06-29, 00:13:00,VALID,920.229,VALID,0,VALID,96.394,VALID,0.0169808,VALID,21.0864,VALID,31,VALID,0.83817,
2002-06-29, 00:14:00,VALID,920.217,VALID,0,VALID,96.2643,VALID,0,VALID,21.0805,VALID,34,VALID,0.785846,
2002-06-29, 00:15:00,VALID,920.21,VALID,0,VALID,96.2528,VALID,0.0169808,VALID,21.0573,VALID,40,VALID,0.316602,
2002-06-29, 00:16:00,VALID,920.208,VALID,0,VALID,96.3024,VALID,0,VALID,21.0805,VALID,19,VALID,0.357718,
2002-06-29, 00:17:00,VALID,920.213,VALID,0,VALID,96.2249,VALID,-0.0169808,VALID,21.0772,VALID,317,VALID,0.564286,
2002-06-29, 00:18:00,VALID,920.2,VALID,0,VALID,96.1435,VALID,0.0169808,VALID,21.0576,VALID,318,VALID,0.341211,
2002-06-29, 00:19:00,VALID,920.174,VALID,0,VALID,96.1918,VALID,0,VALID,21.0705,VALID,329,VALID,0.165625,
2002-06-29, 00:20:00,VALID,920.148,VALID,0,VALID,96.1524,VALID,-0.0169808,VALID,21.0705,VALID,3,VALID,0.481847,
2002-06-29, 00:21:00,VALID,920.145,VALID,0,VALID,96.1486,VALID,0,VALID,21.0802,VALID,22,VALID,0.675586,
2002-06-29, 00:22:00,VALID,920.136,VALID,0,VALID,96.0685,VALID,-0.0169808,VALID,21.0832,VALID,20,VALID,0.712831,
2002-06-29, 00:23:00,VALID,920.143,VALID,0,VALID,96.0163,VALID,-0.0169808,VALID,21.0799,VALID,29,VALID,0.54442,
2002-06-29, 00:24:00,VALID,920.143,VALID,0,VALID,95.8586,VALID,0,VALID,21.0767,VALID,355,VALID,0.545117,
2002-06-29, 00:25:00,VALID,920.142,VALID,0,VALID,95.7048,VALID,-0.0169808,VALID,21.0153,VALID,313,VALID,0.379911,
2002-06-29, 00:26:00,VALID,920.121,VALID,0,VALID,95.7798,VALID,-0.0679233,VALID,20.9937,VALID,9,VALID,0.532399,
2002-06-29, 00:27:00,VALID,920.085,VALID,0,VALID,95.8803,VALID,-0.101885,VALID,20.9684,VALID,14,VALID,0.981641,
2002-06-29, 00:28:00,VALID,920.057,VALID,0,VALID,95.9438,VALID,-0.101885,VALID,20.9458,VALID,5,VALID,1.23915,
2002-06-29, 00:29:00,VALID,920.036,VALID,0,VALID,95.9769,VALID,-0.101885,VALID,20.9329,VALID,360,VALID,1.1442,
2002-06-29, 00:30:00,VALID,920.043,VALID,0,VALID,96.0532,VALID,-0.101885,VALID,20.9167,VALID,28,VALID,0.959375,
2002-06-29, 00:31:00,VALID,920.024,VALID,0,VALID,96.1066,VALID,-0.0849042,VALID,20.9103,VALID,25,VALID,0.977232,
2002-06-29, 00:32:00,VALID,920.028,VALID,0,VALID,96.0545,VALID,-0.101885,VALID,20.9006,VALID,9,VALID,0.986903,
2002-06-29, 00:33:00,VALID,920.017,VALID,0,VALID,96.015,VALID,-0.118866,VALID,20.8814,VALID,15,VALID,0.672656,
2002-06-29, 00:34:00,VALID,920.002,VALID,0,VALID,96.0481,VALID,-0.101885,VALID,20.8745,VALID,360,VALID,0.378788,
2002-06-29, 00:35:00,VALID,919.96,VALID,0,VALID,96.1562,VALID,-0.101885,VALID,20.8745,VALID,25,VALID,0.373437,
2002-06-29, 00:36:00,VALID,919.958,VALID,0,VALID,96.1066,VALID,-0.101885,VALID,20.8809,VALID,27,VALID,0.114648,
2002-06-29, 00:37:00,VALID,919.965,VALID,0,VALID,96.0252,VALID,-0.101885,VALID,20.8812,VALID,27,VALID,0.213616,
2002-06-29, 00:38:00,VALID,919.966,VALID,0,VALID,95.9375,VALID,-0.101885,VALID,20.8685,VALID,27,VALID,0.195083,
2002-06-29, 00:39:00,VALID,919.954,VALID,0,VALID,95.8612,VALID,-0.101885,VALID,20.8588,VALID,27,VALID,0.223242,
2002-06-29, 00:40:00,VALID,919.943,VALID,0,VALID,95.8141,VALID,-0.101885,VALID,20.8424,VALID,27,VALID,0.198153,
2002-06-29, 00:41:00,VALID,919.922,VALID,0,VALID,95.7493,VALID,-0.0849042,VALID,20.809,VALID,27,VALID,0.1,
2002-06-29, 00:42:00,VALID,919.916,VALID,0,VALID,95.7785,VALID,0.0169808,VALID,20.8018,VALID,27,VALID,0,
2002-06-29, 00:43:00,VALID,919.913,VALID,0,VALID,95.762,VALID,0,VALID,20.7862,VALID,27,VALID,0,
2002-06-29, 00:44:00,VALID,919.927,VALID,0,VALID,95.7429,VALID,0,VALID,20.7695,VALID,27,VALID,0,
2002-06-29, 00:45:00,VALID,919.94,VALID,0,VALID,95.7086,VALID,0,VALID,20.7603,VALID,27,VALID,0,
2002-06-29, 00:46:00,VALID,919.95,VALID,0,VALID,95.7531,VALID,-0.0169808,VALID,20.7474,VALID,27,VALID,0,
2002-06-29, 00:47:00,VALID,919.974,VALID,0,VALID,95.8269,VALID,0,VALID,20.7181,VALID,27,VALID,0,
2002-06-29, 00:48:00,VALID,919.967,VALID,0,VALID,95.9489,VALID,-0.0169808,VALID,20.6954,VALID,27,VALID,0,
2002-06-29, 00:49:00,VALID,919.961,VALID,0,VALID,96.0176,VALID,-0.0339617,VALID,20.6793,VALID,27,VALID,0,
2002-06-29, 00:50:00,VALID,919.934,VALID,0,VALID,96.1002,VALID,0,VALID,20.6761,VALID,27,VALID,0,
2002-06-29, 00:51:00,VALID,919.913,VALID,0,VALID,96.1282,VALID,0,VALID,20.6696,VALID,34,VALID,0.314453,
2002-06-29, 00:52:00,VALID,919.891,VALID,0,VALID,96.0646,VALID,0,VALID,20.6375,VALID,27,VALID,0.438684,
2002-06-29, 00:53:00,VALID,919.861,VALID,0,VALID,95.9807,VALID,0,VALID,20.6114,VALID,27,VALID,0.663839,
2002-06-29, 00:54:00,VALID,919.825,VALID,0,VALID,95.9858,VALID,0,VALID,20.5955,VALID,28,VALID,0.685156,
2002-06-29, 00:55:00,VALID,919.786,VALID,0,VALID,96.1244,VALID,-0.0169808,VALID,20.5565,VALID,28,VALID,0.521429,
2002-06-29, 00:56:00,VALID,919.758,VALID,0,VALID,96.408,VALID,-0.0169808,VALID,20.553,VALID,28,VALID,0.3233,
2002-06-29, 00:57:00,VALID,919.753,VALID,0,VALID,96.5771,VALID,0,VALID,20.5756,VALID,28,VALID,0.192578,
2002-06-29, 00:58:00,VALID,919.736,VALID,0,VALID,96.689,VALID,0,VALID,20.5888,VALID,27,VALID,0.109612,
2002-06-29, 00:59:00,VALID,919.742,VALID,0,VALID,96.6788,VALID,0,VALID,20.5759,VALID,360,VALID,0.470759,
2002-06-29, 01:00:00,VALID,919.757,VALID,0,VALID,96.7767,VALID,-0.0169808,VALID,20.5533,VALID,348,VALID,0.371094,
2002-06-29, 01:01:00,VALID,919.75,VALID,0,VALID,96.839,VALID,-0.0169808,VALID,20.5471,VALID,350,VALID,0.177679,
2002-06-29, 01:02:00,VALID,919.773,VALID,0,VALID,96.909,VALID,0,VALID,20.5371,VALID,355,VALID,0.358686,
2002-06-29, 01:03:00,VALID,919.777,VALID,0,VALID,97.0361,VALID,0,VALID,20.5404,VALID,3,VALID,0.287891,
2002-06-29, 01:04:00,VALID,919.766,VALID,0,VALID,97.045,VALID,0,VALID,20.5436,VALID,352,VALID,0.251894,
2002-06-29, 01:05:00,VALID,919.738,VALID,0,VALID,97.04,VALID,0,VALID,20.5409,VALID,348,VALID,0.143527,
2002-06-29, 01:06:00,VALID,919.706,VALID,0,VALID,96.9331,VALID,0,VALID,20.5339,VALID,351,VALID,0.451172,
2002-06-29, 01:07:00,VALID,919.667,VALID,0,VALID,96.8022,VALID,0,VALID,20.5115,VALID,351,VALID,0.348214,
2002-06-29, 01:08:00,VALID,919.637,VALID,0,VALID,96.7538,VALID,0,VALID,20.4956,VALID,351,VALID,0.633732,
2002-06-29, 01:09:00,VALID,919.616,VALID,0,VALID,96.8009,VALID,-0.0169808,VALID,20.4924,VALID,328,VALID,0.526563,
2002-06-29, 01:10:00,VALID,919.603,VALID,0,VALID,96.8479,VALID,-0.0169808,VALID,20.4954,VALID,278,VALID,0.421165,
2002-06-29, 01:11:00,VALID,919.586,VALID,0,VALID,96.8797,VALID,-0.0339617,VALID,20.5121,VALID,277,VALID,0.553125,
2002-06-29, 01:12:00,VALID,919.582,VALID,0,VALID,96.9306,VALID,0,VALID,20.5086,VALID,277,VALID,0.213672,
2002-06-29, 01:13:00,VALID,919.601,VALID,0,VALID,96.9815,VALID,-0.0169808,VALID,20.4889,VALID,277,VALID,0.133036,
2002-06-29, 01:14:00,VALID,919.606,VALID,0,VALID,97.0629,VALID,-0.0169808,VALID,20.4924,VALID,275,VALID,0.265855,
2002-06-29, 01:15:00,VALID,919.605,VALID,0,VALID,97.1735,VALID,-0.0169808,VALID,20.483,VALID,267,VALID,0.144336,
2002-06-29, 01:16:00,VALID,919.594,VALID,0,VALID,97.279,VALID,0,VALID,20.4862,VALID,276,VALID,0.0189394,
2002-06-29, 01:17:00,VALID,919.552,VALID,0,VALID,97.3629,VALID,0,VALID,20.4857,VALID,29,VALID,0.713393,
2002-06-29, 01:18:00,VALID,919.51,VALID,0,VALID,97.3477,VALID,0.0169808,VALID,20.5026,VALID,20,VALID,0.531055,
2002-06-29, 01:19:00,VALID,919.478,VALID,0,VALID,97.307,VALID,0,VALID,20.486,VALID,20,VALID,0.0537946,
2002-06-29, 01:20:00,VALID,919.465,VALID,0,VALID,97.2625,VALID,-0.0169808,VALID,20.4728,VALID,348,VALID,0.117188,
2002-06-29, 01:21:00,VALID,919.451,VALID,0,VALID,97.3083,VALID,-0.0169808,VALID,20.4604,VALID,229,VALID,0.337891,
2002-06-29, 01:22:00,VALID,919.443,VALID,0,VALID,97.3515,VALID,0,VALID,20.4569,VALID,229,VALID,0.157434,
2002-06-29, 01:23:00,VALID,919.402,VALID,0,VALID,97.4011,VALID,0,VALID,20.4399,VALID,229,VALID,0,
2002-06-29, 01:24:00,VALID,919.354,VALID,0,VALID,97.4799,VALID,-0.0169808,VALID,20.434,VALID,229,VALID,0.0443359,
2002-06-29, 01:25:00,VALID,919.308,VALID,0,VALID,97.5524,VALID,-0.0169808,VALID,20.4609,VALID,229,VALID,0.000669643,
2002-06-29, 01:26:00,VALID,919.268,VALID,0,VALID,97.5308,VALID,0,VALID,20.4534,VALID,229,VALID,0.140855,
2002-06-29, 01:27:00,VALID,919.28,VALID,0,VALID,97.3045,VALID,-0.0169808,VALID,20.4251,VALID,230,VALID,0.0425781,
2002-06-29, 01:28:00,VALID,919.264,VALID,0,VALID,97.1417,VALID,0,VALID,20.3731,VALID,230,VALID,0.00331439,
2002-06-29, 01:29:00,VALID,919.276,VALID,0,VALID,97.1175,VALID,0,VALID,20.3304,VALID,200,VALID,0.322098,
2002-06-29, 01:30:00,VALID,919.278,VALID,0,VALID,97.1557,VALID,0,VALID,20.3217,VALID,177,VALID,0.460742,
2002-06-29, 01:31:00,VALID,919.286,VALID,0,VALID,97.3261,VALID,-0.0169808,VALID,20.3185,VALID,176,VALID,0.546875,
2002-06-29, 01:32:00,VALID,919.276,VALID,0,VALID,97.4812,VALID,0.0339617,VALID,20.3247,VALID,174,VALID,0.396369,
2002-06-29, 01:33:00,VALID,919.267,VALID,0,VALID,97.5829,VALID,0,VALID,20.3346,VALID,174,VALID,0.170312,
2002-06-29, 01:34:00,VALID,919.263,VALID,0,VALID,97.658,VALID,-0.0169808,VALID,20.3346,VALID,174,VALID,0,
2002-06-29, 01:35:00,VALID,919.225,VALID,0,VALID,97.7444,VALID,0,VALID,20.3478,VALID,173,VALID,0.0171875,
2002-06-29, 01:36:00,VALID,919.183,VALID,0,VALID,97.7622,VALID,-0.0339617,VALID,20.3309,VALID,57,VALID,0.366992,
2002-06-29, 01:37:00,VALID,919.171,VALID,0,VALID,97.7152,VALID,-0.0339617,VALID,20.3282,VALID,43,VALID,0.353795,
2002-06-29, 01:38:00,VALID,919.149,VALID,0,VALID,97.5664,VALID,0,VALID,20.2891,VALID,43,VALID,0.323989,
2002-06-29, 01:39:00,VALID,919.129,VALID,0,VALID,97.3795,VALID,-0.0169808,VALID,20.2315,VALID,43,VALID,0.535937,
2002-06-29, 01:40:00,VALID,919.115,VALID,0,VALID,97.3426,VALID,-0.0339617,VALID,20.1833,VALID,43,VALID,0.542377,
2002-06-29, 01:41:00,VALID,919.102,VALID,0,VALID,97.2803,VALID,0,VALID,20.1343,VALID,39,VALID,0.618304,
2002-06-29, 01:42:00,VALID,919.087,VALID,0,VALID,97.0298,VALID,-0.0339617,VALID,20.0536,VALID,23,VALID,0.798633,
2002-06-29, 01:43:00,VALID,919.072,VALID,0,VALID,97.0005,VALID,-0.0169808,VALID,19.976,VALID,22,VALID,0.830134,
2002-06-29, 01:44:00,VALID,919.046,VALID,0,VALID,97.1493,VALID,0,VALID,19.9378,VALID,22,VALID,0.931066,
2002-06-29, 01:45:00,VALID,919.02,VALID,0,VALID,97.3184,VALID,-0.0169808,VALID,19.8923,VALID,31,VALID,0.964258,
2002-06-29, 01:46:00,VALID,918.975,VALID,0,VALID,97.6084,VALID,-0.0679233,VALID,19.8829,VALID,31,VALID,0.774858,
2002-06-29, 01:47:00,VALID,918.944,VALID,0,VALID,97.78,VALID,-0.0169808,VALID,19.8727,VALID,36,VALID,0.626116,
2002-06-29, 01:48:00,VALID,918.921,VALID,0,VALID,97.7889,VALID,0,VALID,19.853,VALID,38,VALID,0.582812,
2002-06-29, 01:49:00,VALID,918.913,VALID,0,VALID,97.8449,VALID,-0.0339617,VALID,19.8503,VALID,38,VALID,0.49933,
2002-06-29, 01:50:00,VALID,918.916,VALID,0,VALID,97.9021,VALID,-0.0339617,VALID,19.8565,VALID,36,VALID,0.403722,
2002-06-29, 01:51:00,VALID,918.924,VALID,0,VALID,97.8919,VALID,-0.0169808,VALID,19.8597,VALID,36,VALID,0.343555,
2002-06-29, 01:52:00,VALID,918.943,VALID,0,VALID,97.8118,VALID,-0.0169808,VALID,19.8535,VALID,32,VALID,0.202415,
2002-06-29, 01:53:00,VALID,918.962,VALID,0,VALID,97.8347,VALID,-0.0169808,VALID,19.8369,VALID,31,VALID,0.009375,
2002-06-29, 01:54:00,VALID,918.986,VALID,0,VALID,97.8665,VALID,0,VALID,19.8433,VALID,31,VALID,0,
2002-06-29, 01:55:00,VALID,919.001,VALID,0,VALID,97.8843,VALID,-0.0169808,VALID,19.863,VALID,31,VALID,0.00625,
2002-06-29, 01:56:00,VALID,919.004,VALID,0,VALID,97.9174,VALID,-0.0509425,VALID,19.8925,VALID,31,VALID,0.147059,
2002-06-29, 01:57:00,VALID,918.993,VALID,0,VALID,97.8779,VALID,-0.0339617,VALID,19.9087,VALID,31,VALID,0.168164,
2002-06-29, 01:58:00,VALID,918.986,VALID,0,VALID,97.761,VALID,0,VALID,19.9179,VALID,32,VALID,0.409328,
2002-06-29, 01:59:00,VALID,918.969,VALID,0,VALID,97.5804,VALID,0,VALID,19.9142,VALID,36,VALID,0.648884,
2002-06-29, 02:00:00,VALID,918.967,VALID,0,VALID,97.3045,VALID,-0.0679233,VALID,19.9052,VALID,32,VALID,0.869141,
2002-06-29, 02:01:00,VALID,918.958,VALID,0,VALID,97.0565,VALID,-0.0339617,VALID,19.8896,VALID,25,VALID,0.902455,
2002-06-29, 02:02:00,VALID,918.954,VALID,0,VALID,96.7907,VALID,-0.0169808,VALID,19.854,VALID,24,VALID,0.731618,
2002-06-29, 02:03:00,VALID,918.959,VALID,0,VALID,96.6241,VALID,-0.0169808,VALID,19.812,VALID,23,VALID,0.532422,
2002-06-29, 02:04:00,VALID,918.967,VALID,0,VALID,96.8785,VALID,-0.0509425,VALID,19.7981,VALID,355,VALID,0.340909,
2002-06-29, 02:05:00,VALID,918.979,VALID,0,VALID,97.2205,VALID,-0.0679233,VALID,19.8605,VALID,346,VALID,0.0879464,
2002-06-29, 02:06:00,VALID,918.973,VALID,0,VALID,97.4075,VALID,-0.0679233,VALID,19.9186,VALID,265,VALID,0.415234,
2002-06-29, 02:07:00,VALID,918.975,VALID,0,VALID,97.7724,VALID,-0.0339617,VALID,19.9927,VALID,244,VALID,0.439509,
2002-06-29, 02:08:00,VALID,918.977,VALID,0,VALID,97.9072,VALID,0,VALID,20.0506,VALID,244,VALID,0.292739,
2002-06-29, 02:09:00,VALID,918.968,VALID,0,VALID,97.9352,VALID,0,VALID,20.0635,VALID,244,VALID,0.322852,
2002-06-29, 02:10:00,VALID,918.96,VALID,0,VALID,97.9835,VALID,-0.0169808,VALID,20.0635,VALID,244,VALID,0.334044,
2002-06-29, 02:11:00,VALID,918.964,VALID,0,VALID,98.0051,VALID,-0.0679233,VALID,20.071,VALID,244,VALID,0.347098,
2002-06-29, 02:12:00,VALID,918.966,VALID,0,VALID,98.1145,VALID,-0.135847,VALID,20.0916,VALID,244,VALID,0.450391,
2002-06-29, 02:13:00,VALID,918.967,VALID,0,VALID,98.2187,VALID,-0.101885,VALID,20.1073,VALID,244,VALID,0.35067,
2002-06-29, 02:14:00,VALID,918.978,VALID,0,VALID,98.2747,VALID,-0.135847,VALID,20.107,VALID,244,VALID,0.285156,
2002-06-29, 02:15:00,VALID,918.98,VALID,0,VALID,98.323,VALID,-0.118866,VALID,20.1205,VALID,244,VALID,0.333203,
2002-06-29, 02:16:00,VALID,918.98,VALID,0,VALID,98.351,VALID,-0.101885,VALID,20.1167,VALID,244,VALID,0.493371,
2002-06-29, 02:17:00,VALID,918.969,VALID,0,VALID,98.3904,VALID,-0.101885,VALID,20.1137,VALID,244,VALID,0.518973,
2002-06-29, 02:18:00,VALID,918.955,VALID,0,VALID,98.4298,VALID,-0.152827,VALID,20.1267,VALID,244,VALID,0.343555,
2002-06-29, 02:19:00,VALID,918.947,VALID,0,VALID,98.426,VALID,-0.101885,VALID,20.1234,VALID,232,VALID,0.148884,
2002-06-29, 02:20:00,VALID,918.928,VALID,0,VALID,98.426,VALID,-0.101885,VALID,20.1199,VALID,232,VALID,0.273438,
2002-06-29, 02:21:00,VALID,918.906,VALID,0,VALID,98.4209,VALID,-0.101885,VALID,20.1232,VALID,238,VALID,0.152561,
2002-06-29, 02:22:00,VALID,918.902,VALID,0,VALID,98.3993,VALID,-0.101885,VALID,20.1331,VALID,238,VALID,0.361742,
2002-06-29, 02:23:00,VALID,918.893,VALID,0,VALID,98.337,VALID,-0.118866,VALID,20.1361,VALID,238,VALID,0.431696,
2002-06-29, 02:24:00,VALID,918.9,VALID,0,VALID,98.2518,VALID,-0.118866,VALID,20.1617,VALID,239,VALID,0.102539,
2002-06-29, 02:25:00,VALID,918.899,VALID,0,VALID,98.1005,VALID,-0.101885,VALID,20.155,VALID,239,VALID,0,
2002-06-29, 02:26:00,VALID,918.902,VALID,0,VALID,97.9237,VALID,-0.0509425,VALID,20.1386,VALID,239,VALID,0.0137868,
2002-06-29, 02:27:00,VALID,918.893,VALID,0,VALID,97.7521,VALID,0,VALID,20.1184,VALID,239,VALID,0,
2002-06-29, 02:28:00,VALID,918.879,VALID,0,VALID,97.6923,VALID,-0.0339617,VALID,20.1087,VALID,239,VALID,0.0364583,
2002-06-29, 02:29:00,VALID,918.862,VALID,0,VALID,97.5931,VALID,-0.0169808,VALID,20.1187,VALID,239,VALID,0.0301339,
2002-06-29, 02:30:00,VALID,918.836,VALID,0,VALID,97.527,VALID,-0.0339617,VALID,20.1187,VALID,239,VALID,0.0310547,
2002-06-29, 02:31:00,VALID,918.81,VALID,0,VALID,97.6134,VALID,-0.0169808,VALID,20.148,VALID,240,VALID,0.2125,
2002-06-29, 02:32:00,VALID,918.809,VALID,0,VALID,97.6592,VALID,0,VALID,20.1865,VALID,240,VALID,0.298943,
2002-06-29, 02:33:00,VALID,918.8,VALID,0,VALID,97.6516,VALID,0.0169808,VALID,20.2059,VALID,240,VALID,0.295703,
2002-06-29, 02:34:00,VALID,918.793,VALID,0,VALID,97.5995,VALID,0.0169808,VALID,20.2091,VALID,240,VALID,0.290246,
2002-06-29, 02:35:00,VALID,918.789,VALID,0,VALID,97.6134,VALID,0,VALID,20.2159,VALID,240,VALID,0.136607,
2002-06-29, 02:36:00,VALID,918.784,VALID,0,VALID,97.6249,VALID,0.0169808,VALID,20.2059,VALID,240,VALID,0.00644531,
2002-06-29, 02:37:00,VALID,918.785,VALID,0,VALID,97.5944,VALID,0,VALID,20.1962,VALID,240,VALID,0,
2002-06-29, 02:38:00,VALID,918.782,VALID,0,VALID,97.4621,VALID,-0.0169808,VALID,20.1833,VALID,285,VALID,0.161075,
2002-06-29, 02:39:00,VALID,918.751,VALID,0,VALID,97.354,VALID,-0.0169808,VALID,20.1211,VALID,331,VALID,0.343555,
2002-06-29, 02:40:00,VALID,918.761,VALID,0,VALID,97.265,VALID,0,VALID,20.1087,VALID,331,VALID,0.156487,
2002-06-29, 02:41:00,VALID,918.748,VALID,0,VALID,97.3273,VALID,-0.0169808,VALID,20.0896,VALID,331,VALID,0,
2002-06-29, 02:42:00,VALID,918.747,VALID,0,VALID,97.4431,VALID,0,VALID,20.106,VALID,331,VALID,0,
2002-06-29, 02:43:00,VALID,918.768,VALID,0,VALID,97.555,VALID,-0.0169808,VALID,20.1117,VALID,297,VALID,0.1875,
2002-06-29, 02:44:00,VALID,918.753,VALID,0,VALID,97.6948,VALID,0,VALID,20.1475,VALID,236,VALID,0.182445,
2002-06-29, 02:45:00,VALID,918.743,VALID,0,VALID,97.6847,VALID,-0.0169808,VALID,20.1574,VALID,236,VALID,0.0310547,
2002-06-29, 02:46:00,VALID,918.715,VALID,0,VALID,97.6478,VALID,-0.0339617,VALID,20.1483,VALID,236,VALID,0.00118371,
2002-06-29, 02:47:00,VALID,918.676,VALID,0,VALID,97.5397,VALID,-0.0169808,VALID,20.1256,VALID,236,VALID,0.0316964,
2002-06-29, 02:48:00,VALID,918.65,VALID,0,VALID,97.349,VALID,0,VALID,20.074,VALID,236,VALID,0.224219,
2002-06-29, 02:49:00,VALID,918.633,VALID,0,VALID,97.5562,VALID,-0.0509425,VALID,20.0931,VALID,238,VALID,0.11808,
2002-06-29, 02:50:00,VALID,918.618,VALID,0,VALID,97.4545,VALID,-0.0339617,VALID,20.0543,VALID,239,VALID,0,
2002-06-29, 02:51:00,VALID,918.602,VALID,0,VALID,97.5435,VALID,-0.0169808,VALID,20.0645,VALID,239,VALID,0,
2002-06-29, 02:52:00,VALID,918.572,VALID,0,VALID,97.4151,VALID,0,VALID,20.025,VALID,239,VALID,0.165483,
2002-06-29, 02:53:00,VALID,918.548,VALID,0,VALID,97.0578,VALID,0,VALID,19.9445,VALID,288,VALID,0.308929,
2002-06-29, 02:54:00,VALID,918.535,VALID,0,VALID,96.8416,VALID,0,VALID,19.8764,VALID,25,VALID,0.578125,
2002-06-29, 02:55:00,VALID,918.499,VALID,0,VALID,96.5911,VALID,0,VALID,19.7986,VALID,25,VALID,0.634152,
2002-06-29, 02:56:00,VALID,918.489,VALID,0,VALID,96.7132,VALID,0,VALID,19.7569,VALID,25,VALID,0.602022,
2002-06-29, 02:57:00,VALID,918.476,VALID,0,VALID,97.1163,VALID,-0.0169808,VALID,19.7668,VALID,25,VALID,0.507813,
2002-06-29, 02:58:00,VALID,918.461,VALID,0,VALID,97.396,VALID,-0.0339617,VALID,19.7892,VALID,25,VALID,0.262074,
2002-06-29, 02:59:00,VALID,918.471,VALID,0,VALID,97.644,VALID,-0.0339617,VALID,19.8279,VALID,25,VALID,0.0149554,
2002-06-29, 03:00:00,VALID,918.457,VALID,0,VALID,97.8322,VALID,-0.0509425,VALID,19.8871,VALID,25,VALID,0.265039,
2002-06-29, 03:01:00,VALID,918.446,VALID,0,VALID,97.8271,VALID,-0.0169808,VALID,19.8998,VALID,25,VALID,0.254464,
2002-06-29, 03:02:00,VALID,918.438,VALID,0,VALID,97.5181,VALID,-0.0169808,VALID,19.8575,VALID,16,VALID,0.435432,
2002-06-29, 03:03:00,VALID,918.404,VALID,0,VALID,97.1379,VALID,-0.0509425,VALID,19.7579,VALID,15,VALID,0.609375,
2002-06-29, 03:04:00,VALID,918.393,VALID,0,VALID,96.9815,VALID,-0.0169808,VALID,19.693,VALID,15,VALID,0.952178,
2002-06-29, 03:05:00,VALID,918.388,VALID,0,VALID,97.1773,VALID,-0.0509425,VALID,19.6503,VALID,14,VALID,0.948661,
2002-06-29, 03:06:00,VALID,918.381,VALID,0,VALID,97.6402,VALID,-0.0679233,VALID,19.7151,VALID,11,VALID,0.916016,
2002-06-29, 03:07:00,VALID,918.385,VALID,0,VALID,97.8716,VALID,-0.0339617,VALID,19.7678,VALID,4,VALID,0.798214,
2002-06-29, 03:08:00,VALID,918.389,VALID,0,VALID,97.9339,VALID,-0.0169808,VALID,19.7832,VALID,9,VALID,0.799173,
2002-06-29, 03:09:00,VALID,918.391,VALID,0,VALID,97.9314,VALID,-0.0339617,VALID,19.7802,VALID,7,VALID,0.588867,
2002-06-29, 03:10:00,VALID,918.387,VALID,0,VALID,97.9809,VALID,-0.0339617,VALID,19.7996,VALID,354,VALID,0.531013,
2002-06-29, 03:11:00,VALID,918.397,VALID,0,VALID,98.0407,VALID,0,VALID,19.825,VALID,355,VALID,0.129241,
2002-06-29, 03:12:00,VALID,918.405,VALID,0,VALID,98.131,VALID,-0.0509425,VALID,19.8737,VALID,285,VALID,0.486719,
2002-06-29, 03:13:00,VALID,918.409,VALID,0,VALID,98.173,VALID,-0.0339617,VALID,19.896,VALID,245,VALID,0.710938,
2002-06-29, 03:14:00,VALID,918.421,VALID,0,VALID,98.2276,VALID,0,VALID,19.9326,VALID,254,VALID,0.402803,
2002-06-29, 03:15:00,VALID,918.433,VALID,0,VALID,98.2912,VALID,0,VALID,19.9475,VALID,262,VALID,0.26875,
2002-06-29, 03:16:00,VALID,918.437,VALID,0,VALID,98.3421,VALID,0.0169808,VALID,19.9733,VALID,262,VALID,0.00710227,
2002-06-29, 03:17:00,VALID,918.444,VALID,0,VALID,98.3586,VALID,-0.0339617,VALID,19.9967,VALID,248,VALID,0.379018,
2002-06-29, 03:18:00,VALID,918.453,VALID,0,VALID,98.3688,VALID,-0.0169808,VALID,19.9964,VALID,243,VALID,0.477344,
2002-06-29, 03:19:00,VALID,918.45,VALID,0,VALID,98.3929,VALID,0,VALID,19.9967,VALID,243,VALID,0.347768,
2002-06-29, 03:20:00,VALID,918.445,VALID,0,VALID,98.4133,VALID,-0.0339617,VALID,19.9997,VALID,243,VALID,0.227022,
2002-06-29, 03:21:00,VALID,918.432,VALID,0,VALID,98.4425,VALID,-0.0169808,VALID,19.9929,VALID,243,VALID,0.324219,
2002-06-29, 03:22:00,VALID,918.426,VALID,0,VALID,98.4718,VALID,-0.0339617,VALID,19.9997,VALID,243,VALID,0.372159,
2002-06-29, 03:23:00,VALID,918.442,VALID,0,VALID,98.4705,VALID,-0.0169808,VALID,19.9865,VALID,231,VALID,0.370089,
2002-06-29, 03:24:00,VALID,918.456,VALID,0,VALID,98.4934,VALID,-0.0339617,VALID,19.977,VALID,229,VALID,0.296289,
2002-06-29, 03:25:00,VALID,918.451,VALID,0,VALID,98.4832,VALID,0,VALID,19.9639,VALID,229,VALID,0.250223,
2002-06-29, 03:26:00,VALID,918.444,VALID,0,VALID,98.4756,VALID,-0.0169808,VALID,19.977,VALID,239,VALID,0.185202,
2002-06-29, 03:27:00,VALID,918.431,VALID,0,VALID,98.4858,VALID,-0.0169808,VALID,19.9768,VALID,248,VALID,0.0919922,
2002-06-29, 03:28:00,VALID,918.423,VALID,0,VALID,98.4832,VALID,-0.0169808,VALID,19.9962,VALID,314,VALID,0.281013,
2002-06-29, 03:29:00,VALID,918.405,VALID,0,VALID,98.4324,VALID,0.0169808,VALID,20.0061,VALID,314,VALID,0.259152,
2002-06-29, 03:30:00,VALID,918.395,VALID,0,VALID,98.3828,VALID,0,VALID,20.0088,VALID,325,VALID,0.311133,
2002-06-29, 03:31:00,VALID,918.371,VALID,0,VALID,98.3637,VALID,-0.0169808,VALID,20.0183,VALID,12,VALID,0.618304,
2002-06-29, 03:32:00,VALID,918.358,VALID,0,VALID,98.337,VALID,0.0169808,VALID,20.0471,VALID,11,VALID,0.767923,
2002-06-29, 03:33:00,VALID,918.347,VALID,0,VALID,98.2582,VALID,0,VALID,20.0406,VALID,19,VALID,0.810938,
2002-06-29, 03:34:00,VALID,918.348,VALID,0,VALID,98.1488,VALID,0,VALID,20.0382,VALID,17,VALID,0.756629,
2002-06-29, 03:35:00,VALID,918.353,VALID,0,VALID,97.9949,VALID,0,VALID,20.0151,VALID,18,VALID,0.791071,